Погода в Шелаево

Россия / Иркутская область     56°55′43″N   97°41′44″E
темп.,
°C
ветер,
м/с
пор.,
м/с
влажн.,
%
обл.,
%
осадки,
мм/ч
давл.,
гПа
погр.,
м
9 мая, вс
вс923:00+6юз2473100 0.0 101172
02:00+5юз1288100 0.1 101039
05:00+5вюв129199 0.3 100985
08:00+6в1285100 0.6 1010598
11:00+6зсз1287100 1.0 1010711
14:00+6зсз4590100 1.9 1012857
17:00+5зюз3695100 5.6 1012334
20:00+6ссз358459 6.8 1014477
10 мая, пн
пн1023:00+4сз259576 0.0 1016217
02:00+4зсз239799 0.0 1016120
05:00+4сз2697100 0.1 1017230
08:00+6с388290 0.1 1018357
11:00+10ссв455883 0.1 10191289
14:00+12ссв4548100 0.4 10191795
17:00+13ссв554586 0.4 10191994
20:00+10с255953 0.4 1020263
11 мая, вт
вт1123:00+5ссв227133 0.0 102112
02:00+6с1165100 0.0 102113
05:00+5св117390 0.0 102127
08:00+7всв126999 0.0 1020185
11:00+13св124789 0.0 10191200
14:00+14вюв1138100 0.0 10172077
17:00+15юв1237100 0.0 10161943
20:00+10св587295 0.2 1016521
12 мая, ср
ср1223:00+6св498882 0.0 1018434
02:00+6св389199 0.5 1017535
05:00+4св4108815 0.1 1017637
08:00+4св48744 0.1 1018513
11:00+8св45495 0.0 10171439
14:00+11св45335 0.0 10172117
17:00+12ссв452996 0.0 10162578
20:00+9св473995 0.0 1017847
13 мая, чт
чт1323:00+4ссв26605 0.0 1020112
02:00+2ссв22685 0.0 102040
05:00+1ссв11725 0.0 102112
08:00+5ссв125457 0.0 1022251
11:00+10ссв1334100 0.0 10212333
14:00+13ссз1228100 0.0 10202656
17:00+13зсз232695 0.0 10182563
20:00+11юз244094 0.0 1018126